Regional Weather Roundup
Issued by NWS

Home | Current Version | Previous Version | Graphics & Text | Print | Product List | Glossary Off
Versions: 1 2 3 4 5 6 7 8 9 10 11 12 13 14 15 16 17 18 19 20 21 22 23 24 25 26 27 28 29 30 31 32 33 34 35 36 37 38 39 40 41 42 43 44 45 46 47 48 49 50

000
ASUS43 KMPX 281301
RWRMN
WEATHER ROUNDUP FOR MINNESOTA
NATIONAL WEATHER SERVICE TWIN CITIES/CHANHASSEN MN
800 AM CDT SAT MAY 28 2016


NOTE: "FAIR" INDICATES FEW OR NO CLOUDS BELOW 12,000 FEET WITH NO
SIGNIFICANT WEATHER AND/OR OBSTRUCTIONS TO VISIBILITY. N/A MEANS
CURRENT SKY AND/OR WEATHER CONDITIONS ARE NOT AVAILABLE.

MNZ060>063-068>070-281400-
   Twin Cities Metro

CITY           SKY/WX    TMP DP  RH WIND       PRES   REMARKS
TWIN CITIES    CLOUDY    62  58  86 N10       29.74F
ST PAUL        CLOUDY    61  59  93 N9        29.75F
CRYSTAL        CLOUDY    60  56  86 N6        29.75S
BLAINE         FOG       61  61 100 N6        29.75F VSB 1
EDEN PRAIRIE   CLOUDY    63  58  83 N8        29.73F
SOUTH ST PAUL  CLOUDY    62  59  91 N8        29.74F
LAKE ELMO      CLOUDY    61  59  94 N8G18     29.75F FOG
$$
MNZ001>005-007-008-013>017-022>024-027-028-281400-
   Northwest Minnesota

CITY           SKY/WX    TMP DP  RH WIND       PRES   REMARKS
BEMIDJI        CLOUDY    57  53  88 N7        29.80F
HALLOCK        CLOUDY    63  57  82 CALM      29.85S
ROSEAU         MOSUNNY   61  54  77 NE6       29.87R
WARROAD        CLOUDY    61  55  82 NE7       29.87S
THIEF RVR FALL SUNNY     63  54  72 NE6       29.85S
CROOKSTON      SUNNY     63  57  82 E5        29.83F
FOSSTON        CLOUDY    57  54  88 N6        29.82F
DETROIT LAKES  PTSUNNY   57  54  88 CALM      29.82S
MOORHEAD       MOSUNNY   61  57  88 NE6       29.81S
PARK RAPIDS    CLOUDY    59  53  80 VRB6      29.80F
MAHNOMEN       FAIR      56  55  95 N6        29.81F
$$
MNZ006-009>011-018-025>026-281400-
   North Central Minnesota

CITY           SKY/WX    TMP DP  RH WIND       PRES   REMARKS
BAUDETTE       LGT RAIN  59  57  93 NE6       29.85S
FLAG ISLAND    CLOUDY    61  57  88 NE9       29.86S
INTL FALLS     CLOUDY    58  55  90 NE5       29.84F
WASKISH        CLOUDY    57  55  94 NE6       29.83F
BIG FORK       DRIZZLE   57  55  94 N3        29.81S
LONGVILLE      CLOUDY    55  55 100 CALM      29.79S
GRAND RAPIDS   CLOUDY    56  54  93 NW3       29.80S FOG
CRANE LAKE     CLOUDY    55  54  94 N5        29.83S FOG
ORR            CLOUDY    55  54  94 CALM      29.78F FOG
COOK           LGT RAIN  55  55 100 NE5       29.79F
WALKER         CLOUDY    56  53  90 N6        29.80S
$$
MNZ012-019>021-037-281400-
   Northeast Minnesota

CITY           SKY/WX    TMP DP  RH WIND       PRES   REMARKS
DULUTH         DRIZZLE   50  49  96 E5        29.78S FOG
ELY            DRIZZLE   55  55 100 NE6       29.79S
HIBBING        CLOUDY    56  55  97 VRB3      29.78S
EVELETH        CLOUDY    57  55  94 NE6       29.79S FOG
DULUTH HARBOR  CLOUDY    46  45  93 CALM      29.80S
TWO HARBORS    HAZE      50  45  81 SE5       29.78R VSB<1/4
SILVER BAY     CLOUDY    54  54 100 NE8       29.77R FOG
GRAND MARAIS     N/A     47  46  97 NE7       29.78S
G MARAIS ARPRT CLOUDY    55  52  88 N10G17    29.81S
$$
MNZ029>031-032-039>041-046>048-054>057-064-281400-
   West Central Minnesota

CITY           SKY/WX    TMP DP  RH WIND       PRES   REMARKS
FERGUS FALLS   MOSUNNY   61  57  88 E7        29.77S
WHEATON        MOSUNNY   63  59  88 N5        29.81S
MORRIS         CLOUDY    61  57  88 NE8       29.77S
ALEXANDRIA     CLOUDY    58  55  90 NE9       29.79F
ELBOW LAKE     FAIR      59  56  89 NE8       29.79S
WADENA         MOSUNNY   57  54  88 NE6       29.79F
GLENWOOD       CLOUDY    57  55  94 NE12      29.79S
APPLETON       CLOUDY    61  55  82 NE5       29.77R
ORTONVILLE     CLOUDY    61  55  82 NE8       29.78R
MADISON        PTSUNNY   61  57  88 NE9       29.78R
WILLMAR        CLOUDY    61  57  88 NE9       29.78R
$$
MNZ033>034-036-042>043-049>051-058-059-281400-
   Central Minnesota

CITY           SKY/WX    TMP DP  RH WIND       PRES   REMARKS
ST CLOUD       CLOUDY    57  56  96 NE6       29.76F
SAUK CENTRE    CLOUDY    57  55  91 N9        29.79S
PAYNESVILLE    CLOUDY    57  57  99 NE7       29.78S
AITKIN         CLOUDY    59  54  82 N5        29.77S
PINE RIVER     CLOUDY    57  55  94 N7        29.83S
BRAINERD       CLOUDY    57  55  93 NE5       29.80R
STAPLES        CLOUDY    55  54  94 N5        29.79F
LONG PRAIRIE   CLOUDY    55  54  94 N7        29.79F
LITTLE FALLS   CLOUDY    57  54  88 CALM      29.79S
LITCHFIELD     CLOUDY    59  59 100 NE6       29.76F
BUFFALO        CLOUDY    57  55  92 N8        29.77R
MAPLE LAKE     CLOUDY    58  57  98 N7        29.77F FOG
HUTCHINSON     CLOUDY    59  58  96 N7        29.76S
$$
MNZ037-044-045-052-053-281400-
   East Central Minnesota

CITY           SKY/WX    TMP DP  RH WIND       PRES   REMARKS
PRINCETON        N/A     57  55  94 N7        29.76F FOG
MORA           CLOUDY    54  52  94 CALM      29.80F
CAMBRIDGE      CLOUDY    57  50  77 CALM      29.75S
RUSH CITY      CLOUDY    54  52  94 NE3       29.78F
MOOSE LAKE     FOG       50  50 100 CALM      29.77S VSB 1/2
HINCKLEY       FOG       52  52 100 NE3       29.79S VSB 1/4
CLOQUET        FOG       48  46  93 SE3       29.79R VSB<1/4
MCGREGOR       CLOUDY    55  54  94 CALM      29.78S
$$
MNZ071>073-080-081-089-090-097-098-281400-
   Southwest Minnesota

CITY           SKY/WX    TMP DP  RH WIND       PRES   REMARKS
MONTEVIDEO     CLOUDY    61  57  88 E8        29.78S
GRANITE FALLS  LGT RAIN  61  58  90 NE6       29.78R
CANBY          LGT RAIN  63  60  91 NE8       29.79R
MARSHALL       RAIN      60  58  92 NE8       29.76F FOG
REDWOOD FALLS  RAIN      59  57  93 NE6       29.76R FOG
OLIVIA         CLOUDY    59  55  88 NE7       29.76R
PIPESTONE      LGT RAIN  63  61  94 NE5       29.76R
WINDOM         LGT RAIN  61  61 100 CALM      29.75S
WORTHINGTON    CLOUDY    61  60  97 NE3       29.76S
JACKSON        CLOUDY    64  59  82 CALM      29.75S
TRACY          DRIZZLE   60  60  99 NE5       29.76R
SLAYTON        HVY RAIN  60  60  99 E5        29.77S
$$
MNZ065>067-074>077-082>085-091>093-281400-
   South Central Minnesota

CITY           SKY/WX    TMP DP  RH WIND       PRES   REMARKS
MANKATO        CLOUDY    63  57  82 E9        29.74F
NEW ULM        PTSUNNY   61  61 100 NE7       29.74S
ST JAMES       LGT RAIN  57  55  94 NE5       29.75S
FAIRMONT       CLOUDY    64  63  94 S8        29.74R
GLENCOE        CLOUDY    60  60  98 N7        29.75R
OWATONNA       CLOUDY    63  61  94 CALM      29.77R FOG
WASECA         CLOUDY    63  61  94 E9        29.77S FOG
ALBERT LEA     LGT RAIN  64  63  94 E3        29.75S
$$
MNZ078>079-086>088-094>096-281400-
   Southeast Minnesota

CITY           SKY/WX    TMP DP  RH WIND       PRES   REMARKS
ROCHESTER      CLOUDY    64  63  96 CALM      29.77S FOG
RED WING       CLOUDY    64  63  94 CALM      29.75R FOG
STANTON        CLOUDY    64  62  94 CALM      29.75R FOG
DODGE CENTER   CLOUDY    63  61  94 CALM      29.77S FOG
WINONA         CLOUDY    66  64  94 NW6       29.73S
AUSTIN         CLOUDY    64  63  94 E3        29.75S
PRESTON        CLOUDY    63  62  96 SW5       29.77R FOG
$$
ABBREVIATIONS USED IN REMARKS
   TC - TEMPERATURES IN CELSIUS
  WCI - WIND CHILL INDEX
   HX - HEAT INDEX
  VSB - VISIBILITY
$$




USA.gov is the U.S. government's official web portal to all federal, state and local government web resources and services.